Location: Zlin
(49.2330°N, 17.6670°E)
Time: 16:25:19
(UTC+02:00)

Tiangong - Visible Passes

Search period start: 26 May 2024 00:00
Search period end: 05 June 2024 00:00
Orbit: 370 x 373 km, 41.5° (Epoch: 26 May)

Date Brightness Start Highest point End Pass type
(mag) Time Alt. Az. Time Alt. Az. Time Alt. Az.
26 May -0.1 03:29:35 13° S 03:30:23 14° SSE 03:32:01 10° SE visible
27 May -0.5 04:00:26 10° SW 04:02:40 18° S 04:04:54 10° SE visible
28 May -0.2 02:59:18 16° SSE 02:59:18 16° SSE 03:00:59 10° SE visible
29 May -0.6 03:30:04 16° SSW 03:31:08 19° S 03:33:26 10° SE visible
30 May 0.2 02:28:54 13° SE 02:28:54 13° SE 02:29:28 10° SE visible
30 May -0.5 04:01:03 10° SW 04:03:12 17° S 04:05:20 10° SE visible
31 May -0.5 02:59:44 19° S 02:59:44 19° S 03:01:33 10° SE visible
01 Jun -0.4 03:30:42 15° SSW 03:31:08 15° SSW 03:33:02 10° SSE visible
